Time,TemperatureF,DewpointF,PressureIn,WindDirection,WindDirectionDegrees,WindSpeedMPH,WindSpeedGustMPH,Humidity,HourlyPrecipIn,Conditions,Clouds,dailyrainin,SoftwareType,DateUTC
2013-03-12 00:02:00,49.0,47.0,30.14,WNW,282,6.0,12.0,93,-99.99,,,-99.99,,2013-03-12 07:02:00,
2013-03-12 00:12:00,49.0,47.0,30.14,WNW,282,6.0,12.0,93,-99.99,,,-99.99,,2013-03-12 07:12:00,
2013-03-12 00:21:00,49.0,47.0,30.14,WNW,295,8.0,11.0,93,-99.99,,,-99.99,,2013-03-12 07:21:00,
2013-03-12 00:32:00,49.0,47.0,30.14,West,268,4.0,8.0,94,-99.99,,,-99.99,,2013-03-12 07:32:00,
2013-03-12 00:42:00,49.0,47.0,30.14,West,268,4.0,8.0,94,-99.99,,,-99.99,,2013-03-12 07:42:00,
2013-03-12 00:52:00,49.0,47.0,30.14,West,261,4.0,14.0,94,-99.99,,,-99.99,,2013-03-12 07:52:00,
2013-03-12 01:02:00,49.0,47.0,30.14,WSW,256,5.0,9.0,94,-99.99,,,-99.99,,2013-03-12 08:02:00,
2013-03-12 01:12:00,49.0,47.0,30.14,WSW,256,5.0,9.0,94,-99.99,,,-99.99,,2013-03-12 08:12:00,
2013-03-12 01:22:00,49.0,47.0,30.14,NNW,339,2.0,7.0,94,-99.99,,,-99.99,,2013-03-12 08:22:00,
2013-03-12 01:32:00,49.0,47.0,30.14,West,272,3.0,7.0,94,-99.99,,,-99.99,,2013-03-12 08:32:00,
2013-03-12 01:42:00,49.0,47.0,30.14,West,272,3.0,7.0,94,-99.99,,,-99.99,,2013-03-12 08:42:00,
2013-03-12 01:52:00,49.0,47.0,30.14,NW,311,3.0,8.0,94,-99.99,,,-99.99,,2013-03-12 08:52:00,
2013-03-12 02:02:00,48.0,46.0,30.14,NW,318,2.0,5.0,94,-99.99,,,-99.99,,2013-03-12 09:02:00,
2013-03-12 02:11:00,48.0,46.0,30.14,NW,318,2.0,5.0,94,-99.99,,,-99.99,,2013-03-12 09:11:00,
2013-03-12 02:22:00,48.0,47.0,30.14,NW,307,0.0,5.0,95,-99.99,,,-99.99,,2013-03-12 09:22:00,
2013-03-12 02:32:00,49.0,47.0,30.14,SE,143,0.0,5.0,94,-99.99,,,-99.99,,2013-03-12 09:32:00,
2013-03-12 02:42:00,49.0,47.0,30.14,SE,143,0.0,5.0,94,-99.99,,,-99.99,,2013-03-12 09:42:00,
2013-03-12 02:52:00,49.0,47.0,30.14,NW,313,0.0,3.0,94,-99.99,,,-99.99,,2013-03-12 09:52:00,
2013-03-12 03:02:00,48.0,46.0,30.14,WSW,248,0.0,7.0,94,-99.99,,,-99.99,,2013-03-12 10:02:00,
2013-03-12 03:11:00,48.0,46.0,30.14,WSW,248,0.0,7.0,94,-99.99,,,-99.99,,2013-03-12 10:11:00,
2013-03-12 03:22:00,48.0,46.0,30.14,West,276,1.0,4.0,94,-99.99,,,-99.99,,2013-03-12 10:22:00,
2013-03-12 03:32:00,48.0,46.0,30.13,WSW,255,3.0,6.0,94,-99.99,,,-99.99,,2013-03-12 10:32:00,
2013-03-12 03:42:00,48.0,46.0,30.13,WSW,255,3.0,6.0,94,-99.99,,,-99.99,,2013-03-12 10:42:00,
2013-03-12 03:52:00,48.0,47.0,30.13,WSW,248,3.0,5.0,95,-99.99,,,-99.99,,2013-03-12 10:52:00,
2013-03-12 04:02:00,48.0,47.0,30.12,West,274,2.0,4.0,95,-99.99,,,-99.99,,2013-03-12 11:02:00,
2013-03-12 04:12:00,48.0,47.0,30.12,West,274,2.0,4.0,95,-99.99,,,-99.99,,2013-03-12 11:12:00,
2013-03-12 04:22:00,48.0,47.0,30.12,West,266,0.0,6.0,95,-99.99,,,-99.99,,2013-03-12 11:22:00,
2013-03-12 04:32:00,48.0,47.0,30.12,ESE,118,1.0,3.0,95,-99.99,,,-99.99,,2013-03-12 11:32:00,
2013-03-12 04:42:00,48.0,47.0,30.12,ESE,118,1.0,3.0,95,-99.99,,,-99.99,,2013-03-12 11:42:00,
2013-03-12 04:52:00,48.0,47.0,30.12,West,266,1.0,2.0,95,-99.99,,,-99.99,,2013-03-12 11:52:00,
2013-03-12 05:02:00,48.0,47.0,30.12,West,272,0.0,3.0,95,-99.99,,,-99.99,,2013-03-12 12:02:00,
2013-03-12 05:12:00,48.0,47.0,30.12,West,272,0.0,3.0,95,-99.99,,,-99.99,,2013-03-12 12:12:00,
2013-03-12 05:22:00,48.0,47.0,30.12,West,270,0.0,1.0,95,-99.99,,,-99.99,,2013-03-12 12:22:00,
2013-03-12 05:32:00,48.0,47.0,30.12,East,86,0.0,3.0,95,-99.99,,,-99.99,,2013-03-12 12:32:00,
2013-03-12 05:42:00,48.0,47.0,30.12,East,86,0.0,3.0,95,-99.99,,,-99.99,,2013-03-12 12:42:00,
2013-03-12 05:52:00,48.0,46.0,30.12,NW,305,1.0,4.0,94,-99.99,,,-99.99,,2013-03-12 12:52:00,
2013-03-12 06:02:00,48.0,47.0,30.13,NW,309,2.0,3.0,95,-99.99,,,-99.99,,2013-03-12 13:02:00,
2013-03-12 06:11:00,48.0,47.0,30.13,NW,309,2.0,3.0,95,-99.99,,,-99.99,,2013-03-12 13:11:00,
2013-03-12 06:21:00,48.0,47.0,30.13,NW,311,1.0,4.0,95,-99.99,,,-99.99,,2013-03-12 13:21:00,
2013-03-12 06:32:00,48.0,47.0,30.12,NW,312,0.0,2.0,95,-99.99,,,-99.99,,2013-03-12 13:32:00,
2013-03-12 06:42:00,48.0,47.0,30.12,NW,312,0.0,2.0,95,-99.99,,,-99.99,,2013-03-12 13:42:00,
2013-03-12 06:52:00,48.0,47.0,30.12,East,86,0.0,3.0,95,-99.99,,,-99.99,,2013-03-12 13:52:00,
2013-03-12 07:02:00,48.0,47.0,30.13,West,270,1.0,3.0,95,-99.99,,,-99.99,,2013-03-12 14:02:00,
2013-03-12 07:11:00,48.0,47.0,30.13,West,270,1.0,3.0,95,-99.99,,,-99.99,,2013-03-12 14:11:00,
2013-03-12 07:21:00,48.0,47.0,30.13,West,269,1.0,4.0,95,-99.99,,,-99.99,,2013-03-12 14:21:00,
2013-03-12 07:32:00,48.0,47.0,30.13,WNW,288,0.0,0.0,95,-99.99,,,-99.99,,2013-03-12 14:32:00,
2013-03-12 07:42:00,48.0,47.0,30.13,WNW,288,0.0,0.0,95,-99.99,,,-99.99,,2013-03-12 14:42:00,
2013-03-12 07:52:00,48.0,47.0,30.13,West,265,2.0,3.0,95,-99.99,,,-99.99,,2013-03-12 14:52:00,
2013-03-12 08:02:00,48.0,47.0,30.14,WNW,284,0.0,2.0,95,-99.99,,,-99.99,,2013-03-12 15:02:00,
2013-03-12 08:12:00,48.0,47.0,30.14,WNW,284,0.0,2.0,95,-99.99,,,-99.99,,2013-03-12 15:12:00,
2013-03-12 08:22:00,48.0,47.0,30.14,WNW,284,0.0,1.0,96,-99.99,,,-99.99,,2013-03-12 15:22:00,
2013-03-12 08:32:00,48.0,47.0,30.14,East,86,0.0,2.0,95,-99.99,,,-99.99,,2013-03-12 15:32:00,
2013-03-12 08:41:00,48.0,47.0,30.14,East,86,0.0,2.0,95,-99.99,,,-99.99,,2013-03-12 15:41:00,
2013-03-12 08:52:00,48.0,47.0,30.14,East,86,1.0,3.0,96,-99.99,,,-99.99,,2013-03-12 15:52:00,
2013-03-12 09:02:00,49.0,48.0,30.16,North,1,1.0,2.0,95,-99.99,,,-99.99,,2013-03-12 16:02:00,
2013-03-12 09:12:00,49.0,48.0,30.16,North,1,1.0,2.0,95,-99.99,,,-99.99,,2013-03-12 16:12:00,
2013-03-12 09:22:00,49.0,48.0,30.16,NNE,23,2.0,3.0,95,-99.99,,,-99.99,,2013-03-12 16:22:00,
2013-03-12 09:32:00,49.0,48.0,30.16,East,86,1.0,3.0,95,-99.99,,,-99.99,,2013-03-12 16:32:00,
2013-03-12 09:42:00,49.0,48.0,30.16,East,86,1.0,3.0,95,-99.99,,,-99.99,,2013-03-12 16:42:00,
2013-03-12 09:52:00,50.0,49.0,30.16,NE,50,0.0,3.0,95,-99.99,,,-99.99,,2013-03-12 16:52:00,
2013-03-12 10:02:00,50.0,48.0,30.16,East,86,3.0,4.0,94,-99.99,,,-99.99,,2013-03-12 17:02:00,
2013-03-12 10:12:00,50.0,48.0,30.16,East,86,3.0,4.0,94,-99.99,,,-99.99,,2013-03-12 17:12:00,
2013-03-12 10:22:00,50.0,48.0,30.17,East,86,0.0,4.0,94,-99.99,,,-99.99,,2013-03-12 17:22:00,
2013-03-12 10:33:00,50.0,48.0,30.17,West,281,1.0,4.0,94,-99.99,,,-99.99,,2013-03-12 17:33:00,
2013-03-12 10:53:00,51.0,49.0,30.16,East,91,3.0,4.0,93,-99.99,,,-99.99,,2013-03-12 17:53:00,
2013-03-12 11:02:00,52.0,49.0,30.17,ENE,64,2.0,4.0,89,-99.99,,,-99.99,,2013-03-12 18:02:00,
2013-03-12 11:12:00,53.0,49.0,30.17,North,353,2.0,4.0,87,-99.99,,,-99.99,,2013-03-12 18:12:00,
2013-03-12 11:22:00,53.0,49.0,30.17,North,353,2.0,4.0,87,-99.99,,,-99.99,,2013-03-12 18:22:00,
2013-03-12 11:32:00,53.0,49.0,30.16,NNE,24,2.0,5.0,86,-99.99,,,-99.99,,2013-03-12 18:32:00,
2013-03-12 11:42:00,53.0,49.0,30.16,NNE,24,2.0,5.0,86,-99.99,,,-99.99,,2013-03-12 18:42:00,
2013-03-12 11:53:00,54.0,50.0,30.17,NNW,336,3.0,5.0,86,-99.99,,,-99.99,,2013-03-12 18:53:00,
2013-03-12 12:03:00,56.0,51.0,30.16,North,354,1.0,4.0,82,-99.99,,,-99.99,,2013-03-12 19:03:00,
2013-03-12 12:12:00,56.0,51.0,30.16,North,354,1.0,4.0,82,-99.99,,,-99.99,,2013-03-12 19:12:00,
2013-03-12 12:22:00,55.0,49.0,30.16,NNW,348,1.0,4.0,81,-99.99,,,-99.99,,2013-03-12 19:22:00,
2013-03-12 12:32:00,56.0,50.0,30.16,NW,309,3.0,4.0,81,-99.99,,,-99.99,,2013-03-12 19:32:00,
2013-03-12 12:43:00,56.0,50.0,30.16,NW,309,3.0,4.0,81,-99.99,,,-99.99,,2013-03-12 19:43:00,
2013-03-12 12:52:00,57.0,50.0,30.15,NNW,334,2.0,3.0,78,-99.99,,,-99.99,,2013-03-12 19:52:00,
2013-03-12 13:02:00,59.0,51.0,30.15,North,359,2.0,5.0,75,-99.99,,,-99.99,,2013-03-12 20:02:00,
2013-03-12 13:11:00,59.0,51.0,30.15,North,359,2.0,5.0,75,-99.99,,,-99.99,,2013-03-12 20:11:00,
2013-03-12 13:22:00,60.0,52.0,30.14,North,3,3.0,4.0,75,-99.99,,,-99.99,,2013-03-12 20:22:00,
2013-03-12 13:32:00,62.0,52.0,30.14,WNW,295,3.0,8.0,70,-99.99,,,-99.99,,2013-03-12 20:32:00,
2013-03-12 13:52:00,61.0,52.0,30.14,NNW,348,0.0,4.0,71,-99.99,,,-99.99,,2013-03-12 20:52:00,
2013-03-12 14:02:00,61.0,52.0,30.13,North,357,2.0,4.0,71,-99.99,,,-99.99,,2013-03-12 21:02:00,
2013-03-12 14:12:00,61.0,52.0,30.13,North,357,2.0,4.0,71,-99.99,,,-99.99,,2013-03-12 21:12:00,
2013-03-12 14:22:00,65.0,53.0,30.12,NNW,334,3.0,6.0,66,-99.99,,,-99.99,,2013-03-12 21:22:00,
2013-03-12 14:32:00,66.0,53.0,30.11,North,3,2.0,7.0,63,-99.99,,,-99.99,,2013-03-12 21:32:00,
2013-03-12 14:52:00,64.0,52.0,30.11,West,268,5.0,7.0,64,-99.99,,,-99.99,,2013-03-12 21:52:00,
2013-03-12 15:02:00,63.0,52.0,30.10,WSW,257,4.0,8.0,67,-99.99,,,-99.99,,2013-03-12 22:02:00,
2013-03-12 15:12:00,63.0,52.0,30.10,WSW,257,4.0,8.0,67,-99.99,,,-99.99,,2013-03-12 22:12:00,
2013-03-12 15:22:00,63.0,52.0,30.10,West,261,5.0,8.0,67,-99.99,,,-99.99,,2013-03-12 22:22:00,
2013-03-12 15:32:00,64.0,52.0,30.09,WSW,238,3.0,6.0,65,-99.99,,,-99.99,,2013-03-12 22:32:00,
2013-03-12 15:42:00,64.0,52.0,30.09,WSW,238,3.0,6.0,65,-99.99,,,-99.99,,2013-03-12 22:42:00,
2013-03-12 15:52:00,63.0,51.0,30.09,NW,307,3.0,8.0,65,-99.99,,,-99.99,,2013-03-12 22:52:00,
2013-03-12 16:02:00,63.0,51.0,30.09,West,269,11.0,12.0,65,-99.99,,,-99.99,,2013-03-12 23:02:00,
2013-03-12 16:12:00,63.0,51.0,30.09,West,269,11.0,12.0,65,-99.99,,,-99.99,,2013-03-12 23:12:00,
2013-03-12 16:22:00,62.0,51.0,30.09,WSW,253,5.0,12.0,67,-99.99,,,-99.99,,2013-03-12 23:22:00,
2013-03-12 16:34:00,61.0,51.0,30.09,WNW,289,7.0,13.0,69,-99.99,,,-99.99,,2013-03-12 23:34:00,
2013-03-12 16:42:00,61.0,51.0,30.09,WNW,289,7.0,13.0,69,-99.99,,,-99.99,,2013-03-12 23:42:00,
2013-03-12 16:52:00,61.0,52.0,30.09,West,266,10.0,11.0,71,-99.99,,,-99.99,,2013-03-12 23:52:00,
2013-03-12 17:02:00,60.0,50.0,30.09,East,86,3.0,12.0,70,-99.99,,,-99.99,,2013-03-13 00:02:00,
2013-03-12 17:12:00,60.0,50.0,30.09,East,86,3.0,12.0,70,-99.99,,,-99.99,,2013-03-13 00:12:00,
2013-03-12 17:22:00,59.0,50.0,30.09,WSW,256,11.0,13.0,72,-99.99,,,-99.99,,2013-03-13 00:22:00,
2013-03-12 17:32:00,59.0,50.0,30.08,WSW,257,8.0,16.0,71,-99.99,,,-99.99,,2013-03-13 00:32:00,
2013-03-12 17:41:00,59.0,50.0,30.08,WSW,257,8.0,16.0,71,-99.99,,,-99.99,,2013-03-13 00:41:00,
2013-03-12 17:52:00,60.0,50.0,30.09,WNW,301,7.0,12.0,69,-99.99,,,-99.99,,2013-03-13 00:52:00,
2013-03-12 18:02:00,62.0,51.0,30.08,West,269,5.0,9.0,66,-99.99,,,-99.99,,2013-03-13 01:02:00,
2013-03-12 18:12:00,62.0,51.0,30.08,West,269,5.0,9.0,66,-99.99,,,-99.99,,2013-03-13 01:12:00,
2013-03-12 18:21:00,62.0,51.0,30.08,West,276,4.0,11.0,66,-99.99,,,-99.99,,2013-03-13 01:21:00,
2013-03-12 18:32:00,60.0,51.0,30.09,West,274,4.0,11.0,72,-99.99,,,-99.99,,2013-03-13 01:32:00,
2013-03-12 18:42:00,60.0,51.0,30.09,West,274,4.0,11.0,72,-99.99,,,-99.99,,2013-03-13 01:42:00,
2013-03-12 18:52:00,60.0,51.0,30.09,West,274,4.0,11.0,72,-99.99,,,-99.99,,2013-03-13 01:52:00,
2013-03-12 19:02:00,60.0,51.0,30.09,NW,312,4.0,11.0,73,-99.99,,,-99.99,,2013-03-13 02:02:00,
2013-03-12 19:11:00,60.0,51.0,30.09,NW,312,4.0,11.0,73,-99.99,,,-99.99,,2013-03-13 02:11:00,
2013-03-12 19:22:00,58.0,50.0,30.09,WSW,245,4.0,11.0,75,-99.99,,,-99.99,,2013-03-13 02:22:00,
2013-03-12 19:32:00,57.0,50.0,30.09,SW,234,4.0,13.0,77,-99.99,,,-99.99,,2013-03-13 02:32:00,
2013-03-12 19:42:00,57.0,50.0,30.09,SW,234,4.0,13.0,77,-99.99,,,-99.99,,2013-03-13 02:42:00,
2013-03-12 19:52:00,58.0,50.0,30.09,East,97,1.0,9.0,75,-99.99,,,-99.99,,2013-03-13 02:52:00,
2013-03-12 20:01:00,58.0,50.0,30.09,West,279,5.0,15.0,76,-99.99,,,-99.99,,2013-03-13 03:01:00,
2013-03-12 20:12:00,58.0,50.0,30.09,West,279,5.0,15.0,76,-99.99,,,-99.99,,2013-03-13 03:12:00,
2013-03-12 20:22:00,56.0,49.0,30.09,WSW,258,7.0,14.0,78,-99.99,,,-99.99,,2013-03-13 03:22:00,
2013-03-12 20:32:00,52.0,49.0,30.10,WSW,257,10.0,17.0,88,-99.99,,,-99.99,,2013-03-13 03:32:00,
2013-03-12 20:42:00,52.0,49.0,30.10,WSW,257,10.0,17.0,88,-99.99,,,-99.99,,2013-03-13 03:42:00,
2013-03-12 20:52:00,52.0,49.0,30.11,SW,225,11.0,16.0,88,-99.99,,,-99.99,,2013-03-13 03:52:00,
2013-03-12 21:02:00,50.0,47.0,30.11,West,278,10.0,17.0,90,-99.99,,,-99.99,,2013-03-13 04:02:00,
2013-03-12 21:12:00,50.0,47.0,30.11,West,278,10.0,17.0,90,-99.99,,,-99.99,,2013-03-13 04:12:00,
2013-03-12 21:22:00,51.0,48.0,30.11,WNW,288,1.0,8.0,89,-99.99,,,-99.99,,2013-03-13 04:22:00,
2013-03-12 21:31:00,52.0,49.0,30.12,SE,144,0.0,4.0,88,-99.99,,,-99.99,,2013-03-13 04:31:00,
2013-03-12 21:42:00,52.0,49.0,30.12,SE,144,0.0,4.0,88,-99.99,,,-99.99,,2013-03-13 04:42:00,
2013-03-12 21:52:00,51.0,48.0,30.12,SE,142,2.0,3.0,88,-99.99,,,-99.99,,2013-03-13 04:52:00,
2013-03-12 22:02:00,51.0,48.0,30.12,SSE,151,0.0,2.0,89,-99.99,,,-99.99,,2013-03-13 05:02:00,
2013-03-12 22:12:00,51.0,48.0,30.12,SSE,151,0.0,2.0,89,-99.99,,,-99.99,,2013-03-13 05:12:00,
2013-03-12 22:22:00,51.0,48.0,30.12,SSE,149,0.0,1.0,89,-99.99,,,-99.99,,2013-03-13 05:22:00,
2013-03-12 22:32:00,51.0,48.0,30.13,SSE,149,0.0,1.0,90,-99.99,,,-99.99,,2013-03-13 05:32:00,
2013-03-12 22:42:00,51.0,48.0,30.13,SSE,149,0.0,1.0,90,-99.99,,,-99.99,,2013-03-13 05:42:00,
2013-03-12 22:52:00,51.0,48.0,30.13,SSE,147,0.0,1.0,90,-99.99,,,-99.99,,2013-03-13 05:52:00,
2013-03-12 23:02:00,50.0,47.0,30.13,SSE,155,1.0,1.0,90,-99.99,,,-99.99,,2013-03-13 06:02:00,
2013-03-12 23:12:00,50.0,47.0,30.13,SSE,155,1.0,1.0,90,-99.99,,,-99.99,,2013-03-13 06:12:00,
2013-03-12 23:22:00,50.0,47.0,30.13,SSE,155,0.0,1.0,90,-99.99,,,-99.99,,2013-03-13 06:22:00,
2013-03-12 23:32:00,50.0,47.0,30.14,SSE,164,0.0,2.0,91,-99.99,,,-99.99,,2013-03-13 06:32:00,
2013-03-12 23:42:00,50.0,47.0,30.14,SSE,164,0.0,2.0,91,-99.99,,,-99.99,,2013-03-13 06:42:00,
2013-03-12 23:52:00,50.0,47.0,30.14,SSE,165,0.0,3.0,91,-99.99,,,-99.99,,2013-03-13 06:52:00,